Flag for Norway Weather past 2 weeks in Lierbyen, Norway

Now
50 °F

Partly sunny.


Feels Like: 47 °F
Forecast: 51 / 60 °F
Wind: 8 mph from North

Location: Oslo / Fornebu

Current Time: Jul 7, 2015 at 7:29:32 AM

Latest Report: Jul 7, 2015 at 6:50 AM


Visibility: N/A

Pressure: 29.74 "Hg

Humidity: 88%

Dew point: 46 °F

Location of LierbyenLocation

Historic Weather in Lierbyen — Graph

°F

Lierbyen temperature yesterday

Maximum temperature yesterday: 54 °F (at 12:20 AM)
Minimum temperature yesterday: 50 °F (at 7:50 PM)
Average temperature yesterday: 52 °F

Past Weeks' High & Low Weather Summary

 TemperatureHumidityPressure
High59 °F (Jul 2, 4:20 AM)100% (Jun 25, 9:50 AM)30.36 "Hg (Jun 25, 9:50 AM)
Low46 °F (Jun 23, 9:20 AM)63% (Jun 24, 2:50 PM)29.65 "Hg (Jul 6, 1:20 PM)
Average52 °F90%29.98 "Hg
* Reported Jun 22 6:20 AM — Jul 7 6:20 AM, Lierbyen, Weather by CustomWeather, © 2015

Note: Actual official high and low records may vary slightly from our data, if they occured in-between our weather recording intervals... More about our weather records

Advertising

Lierbyen weather history for previous 24 hours

 ConditionsComfort  
Time TempWeatherWind HumidityBarometerVisibility
6:20 AM
Tue, Jul 7
50 °FMostly cloudy.9 mph88%29.74 "HgN/A
5:50 AM50 °FPartly sunny.9 mph88%29.77 "HgN/A
5:20 AM50 °FPartly sunny.8 mph88%29.77 "HgN/A
4:50 AM50 °FPassing clouds.10 mph88%29.77 "HgN/A
4:20 AM50 °FPassing clouds.13 mph94%29.74 "HgN/A
3:50 AM50 °FPassing clouds.12 mph94%29.74 "HgN/A
3:20 AM50 °FPartly cloudy.14 mph94%29.77 "HgN/A
2:50 AM50 °FPassing clouds.15 mph94%29.74 "HgN/A
2:20 AM50 °FPassing clouds.16 mph94%29.74 "HgN/A
1:50 AM50 °FSprinkles. Passing clouds.17 mph94%29.74 "HgN/A
1:20 AM50 °FPassing clouds.20 mph94%29.74 "HgN/A
12:50 AM50 °FLight rain. Passing clouds.20 mph94%29.74 "HgN/A
12:20 AM50 °FLight rain. Passing clouds.22 mph94%29.74 "HgN/A
11:50 PM
Mon, Jul 6
50 °FLight rain. Passing clouds.22 mph100%29.74 "Hg5 mi
11:20 PM50 °FDrizzle. Partly sunny.23 mph100%29.74 "HgN/A
10:50 PM50 °FLight rain. Broken clouds.25 mph100%29.74 "Hg4 mi
10:20 PM50 °FLight rain. Fog.25 mph100%29.71 "Hg3 mi
9:50 PM50 °FLight rain. Passing clouds.26 mph100%29.71 "Hg4 mi
9:20 PM50 °FLight rain. Partly sunny.25 mph100%29.71 "Hg4 mi
8:50 PM50 °FLight rain. Partly sunny.26 mph100%29.71 "Hg3 mi
8:20 PM50 °FSprinkles. Partly sunny.29 mph100%29.68 "HgN/A
7:50 PM50 °FDrizzle. Broken clouds.28 mph100%29.68 "HgN/A
7:20 PM52 °FPartly sunny.28 mph94%29.68 "HgN/A
6:50 PM52 °FSprinkles. Partly sunny.30 mph94%29.68 "HgN/A
6:20 PM52 °FLight rain. Partly sunny.30 mph94%29.68 "HgN/A
5:50 PM52 °FRain. Broken clouds.33 mph94%29.68 "Hg2 mi
5:20 PM52 °FSprinkles. Partly sunny.33 mph94%29.65 "HgN/A
4:50 PM52 °FBroken clouds.30 mph94%29.68 "HgN/A
4:20 PM52 °FSprinkles. Broken clouds.30 mph94%29.68 "HgN/A
3:50 PM52 °FPartly sunny.26 mph94%29.68 "HgN/A
3:20 PM52 °FLight rain. Partly sunny.25 mph94%29.68 "HgN/A
2:50 PM52 °FSprinkles. Partly sunny.25 mph94%29.68 "HgN/A
2:20 PM52 °FSprinkles. Partly sunny.25 mph94%29.65 "Hg4 mi
1:50 PM52 °FSprinkles. Partly sunny.21 mph100%29.65 "Hg4 mi
1:20 PM52 °FPartly sunny.21 mph100%29.65 "Hg5 mi
12:50 PM52 °FSprinkles. Broken clouds.17 mph100%29.68 "Hg3 mi
12:20 PM52 °FSprinkles. Fog.14 mph100%29.68 "Hg3 mi
11:50 AM52 °FSprinkles. Fog.12 mph100%29.68 "Hg2 mi
11:20 AM52 °FSprinkles. Fog.10 mph100%29.68 "Hg2 mi
10:50 AM52 °FSprinkles. Fog.12 mph100%29.68 "Hg2 mi
10:20 AM52 °FSprinkles. Partly sunny.14 mph100%29.68 "Hg4 mi
9:50 AM54 °FLight rain. Fog.12 mph100%29.68 "Hg1 mi
9:20 AM52 °FLight rain. Fog.9 mph100%29.68 "Hg0 mi
8:50 AM52 °FLight rain. Fog.10 mph100%29.68 "Hg0 mi
8:20 AM52 °FLight rain. Fog.14 mph100%29.68 "Hg0 mi
7:50 AM52 °FSprinkles. Fog.13 mph100%29.68 "Hg1 mi
7:20 AM54 °FLight rain. Fog.15 mph100%29.68 "Hg1 mi
Weather by CustomWeather, © 2015

See weather overviewHow to use our weather pages